Plovdiv, Bulgaria

3:32 PM EET on December 06, 2019 (GMT +0200)
Plovdiv

Weather History for LBPD - October, 2019

Change the Weather History Date:

Thursday, October 31, 2019

  Actual Average Record
Temperature  
Mean Temperature 50 °F -  
Max Temperature 53 °F - - ()
Min Temperature 46 °F - - ()
Degree Days  
Heating Degree Days 16    
Moisture  
Dew Point 47 °F    
Average Humidity 89    
Maximum Humidity 100    
Minimum Humidity 77    
Precipitation  
Precipitation 0.00 in - - ()
Sea Level Pressure  
Sea Level Pressure 30.16 in    
Wind  
Wind Speed 5 mph ()    
Max Wind Speed 14 mph    
Max Gust Speed -    
Visibility 5.1 miles    
Events Rain    
T = Trace of Precipitation, MM = Missing Value Source: Averaged Metar Reports

Daily Weather History Graph

Daily Weather History Graph

Search for Another Location

Airport or City:

Astronomy

Oct. 31, 2019 Rise Set
Actual Time 6:51 AM EET 5:16 PM EET
Civil Twilight 6:22 AM EET 5:45 PM EET
Nautical Twilight 5:50 AM EET 6:18 PM EET
Astronomical Twilight 5:17 AM EET 6:51 PM EET
Moon 10:23 AM EET (10/31) 7:54 PM EET (10/31)
Length of Visible Light 11h 22m
Length of Day
10h 24m
Waxing Crescent, 13% of the Moon is Illuminated
Oct 31
Waxing Crescent
Nov 4
First Quarter
Nov 12
Full
Nov 19
Last Quarter
Nov 26
New

Hourly Weather History & Observations

Time (EET) Temp. Windchill Dew Point Humidity Pressure Visibility Wind Dir Wind Speed Gust Speed Precip Events Conditions
12:00 AM 53.6 °F - 48.2 °F 82% 30.15 in 6.2 mi East 10.4 mph - N/A   Overcast
12:30 AM 53.6 °F - 48.2 °F 82% 30.15 in 6.2 mi ESE 8.1 mph - N/A   Overcast
1:00 AM 53.6 °F - 46.4 °F 77% 30.15 in 6.2 mi ESE 5.8 mph - N/A   Overcast
2:00 AM 53.6 °F - 46.4 °F 77% 30.15 in 6.2 mi Variable 3.5 mph - N/A   Overcast
2:30 AM 53.6 °F - 46.4 °F 77% 30.15 in 6.2 mi East 5.8 mph - N/A   Overcast
3:00 AM 53.6 °F - 46.4 °F 77% 30.15 in 6.2 mi East 3.5 mph - N/A   Overcast
3:30 AM 51.8 °F - 46.4 °F 82% 30.15 in 6.2 mi SE 4.6 mph - N/A   Overcast
4:00 AM 51.8 °F - 46.4 °F 82% 30.15 in 6.2 mi SSE 3.5 mph - N/A   Overcast
4:30 AM 51.8 °F - 46.4 °F 82% 30.15 in 6.2 mi SSE 3.5 mph - N/A   Overcast
6:00 AM 51.8 °F - 48.2 °F 88% 30.12 in 6.2 mi Calm Calm - N/A Rain Light Rain
7:00 AM 50.0 °F - 48.2 °F 94% 30.12 in 3.7 mi Calm Calm - N/A Rain Rain
7:30 AM 51.8 °F - 50.0 °F 94% 30.12 in - SSE 2.3 mph - N/A Rain Rain
8:00 AM 51.8 °F - 50.0 °F 94% 30.15 in 2.8 mi SSE 2.3 mph - N/A Rain Rain
8:30 AM 51.8 °F - 50.0 °F 94% 30.15 in 3.1 mi South 2.3 mph - N/A Rain Rain
9:00 AM 51.8 °F - 50.0 °F 94% 30.15 in 3.1 mi Calm Calm - N/A Rain Light Rain
9:30 AM 51.8 °F - 50.0 °F 94% 30.15 in 2.5 mi WNW 2.3 mph - N/A Rain Light Rain
10:00 AM 51.8 °F - 50.0 °F 94% 30.15 in - NNW 3.5 mph - N/A Rain Light Rain
10:30 AM 51.8 °F - 50.0 °F 94% 30.15 in 3.1 mi Calm Calm - N/A Rain Rain
11:00 AM 51.8 °F - 50.0 °F 94% 30.15 in 3.7 mi Variable 1.2 mph - N/A Rain Light Rain
11:30 AM 51.8 °F - 50.0 °F 94% 30.15 in 3.1 mi NNW 2.3 mph - N/A Rain Light Rain
12:00 PM 51.8 °F - 50.0 °F 94% 30.15 in - NNE 2.3 mph - N/A Rain Light Rain
12:30 PM 51.8 °F - 50.0 °F 94% 30.15 in 2.2 mi WNW 4.6 mph - N/A Rain Rain
1:00 PM 51.8 °F - 50.0 °F 94% 30.15 in 1.7 mi North 4.6 mph - N/A Rain Light Rain
1:30 PM 50.0 °F - 48.2 °F 94% 30.15 in - East 5.8 mph - N/A Rain Rain
2:00 PM 50.0 °F - 48.2 °F 94% 30.15 in 3.1 mi ESE 10.4 mph - N/A Rain Light Rain
2:30 PM 50.0 °F - 48.2 °F 94% 30.15 in - East 11.5 mph - N/A Rain Light Rain
3:00 PM 48.2 °F - 46.4 °F 93% 30.15 in 4.3 mi ESE 13.8 mph - N/A Rain Light Rain
3:30 PM 48.2 °F - 46.4 °F 93% 30.15 in 3.7 mi ESE 12.7 mph - N/A Rain Light Rain
4:00 PM 48.2 °F - 46.4 °F 93% 30.18 in 6.2 mi SE 12.7 mph - N/A Rain Light Rain
4:30 PM 48.2 °F - 46.4 °F 93% 30.15 in 6.2 mi SE 10.4 mph - N/A Rain Light Rain
5:00 PM 50.0 °F - 46.4 °F 87% 30.15 in 6.2 mi ESE 10.4 mph - N/A Rain Light Rain
5:30 PM 50.0 °F - 46.4 °F 87% 30.18 in 6.2 mi ESE 10.4 mph - N/A Rain Light Rain
6:00 PM 48.2 °F - 44.6 °F 87% 30.18 in 6.2 mi ESE 8.1 mph - N/A Rain Light Rain
6:30 PM 48.2 °F - 44.6 °F 87% 30.18 in 6.2 mi ESE 8.1 mph - N/A Rain Light Rain Showers
7:00 PM 48.2 °F - 44.6 °F 87% 30.18 in 6.2 mi SE 8.1 mph - N/A Rain Light Rain Showers
7:30 PM 48.2 °F - 44.6 °F 87% 30.18 in 6.2 mi SE 8.1 mph - N/A Rain Light Rain Showers
8:30 PM 48.2 °F - 44.6 °F 87% 30.18 in 6.2 mi SE 9.2 mph - N/A   Overcast
9:00 PM 48.2 °F - 44.6 °F 87% 30.18 in 6.2 mi ESE 8.1 mph - N/A   Overcast
9:30 PM 48.2 °F - 44.6 °F 87% 30.18 in 6.2 mi ESE 6.9 mph - N/A   Overcast
10:00 PM 46.4 °F 42.4 °F 44.6 °F 93% 30.18 in 6.2 mi East 8.1 mph - N/A   Overcast
10:30 PM 46.4 °F 42.4 °F 44.6 °F 93% 30.21 in 6.2 mi East 8.1 mph - N/A   Overcast
11:00 PM 46.4 °F 42.4 °F 44.6 °F 93% 30.21 in 6.2 mi SE 8.1 mph - N/A   Overcast
11:30 PM 46.4 °F 42.9 °F 46.4 °F 100% 30.18 in 6.2 mi ESE 6.9 mph - N/A   Overcast